EW2235 Weather Reports


time (UTC)temp
C
wind
direction
speed
KPH
gust
KPH
rain 1hr
cm
rain 24hr
cm
rain mn
cm
humidity
%
barometer
mb
20260507110329 11 333 0.0 0.0 0.00 0.00 0.00 84 1020.9
20260507105838 11 333 0.0 0.0 0.00 0.00 0.00 83 1020.9
20260507105330 11 333 0.0 0.0 0.00 0.00 0.00 83 1021.0
20260507104819 11 333 0.0 0.0 0.00 0.00 0.00 83 1021.0
20260507104345 11 333 0.0 0.0 0.00 0.00 0.00 83 1021.0
20260507103847 11 327 0.0 0.0 0.00 0.00 0.00 84 1021.1
20260507103349 11 327 0.0 0.0 0.00 0.00 0.00 84 1021.1
20260507102838 11 356 0.0 0.0 0.00 0.00 0.00 83 1021.1
20260507102335 11 331 0.0 0.0 0.00 0.00 0.00 83 1021.1
20260507101841 11 324 0.0 0.0 0.00 0.00 0.00 83 1021.2
20260507101347 11 316 0.0 0.0 0.00 0.00 0.00 84 1021.2
20260507100853 11 316 0.0 0.0 0.00 0.00 0.00 84 1021.2
20260507100348 11 309 0.0 0.0 0.00 0.00 0.00 84 1021.2
20260507095315 11 342 0.0 0.0 0.00 0.00 0.00 83 1021.3
20260507094818 11 342 0.0 0.0 0.00 0.00 0.00 84 1021.3
20260507094323 11 342 0.0 0.0 0.00 0.00 0.00 84 1021.3
20260507093826 11 345 0.0 0.0 0.00 0.00 0.00 84 1021.3
20260507093331 11 345 0.0 0.0 0.00 0.00 0.00 85 1021.4
20260507092814 11 297 0.0 0.0 0.00 0.00 0.00 85 1021.5
20260507092313 11 332 0.0 0.0 0.00 0.00 0.00 86 1021.5
20260507091816 11 327 0.0 0.0 0.00 0.00 0.00 86 1021.6
20260507091322 11 327 0.0 0.0 0.00 0.00 0.00 86 1021.7
20260507090824 11 318 0.0 0.0 0.00 0.00 0.00 86 1021.7
20260507090331 11 311 0.0 0.0 0.00 0.00 0.00 86 1021.7
20260507085813 11 311 0.0 0.0 0.00 0.00 0.00 86 1021.7
20260507085313 11 311 0.0 0.0 0.00 0.00 0.00 86 1021.6
20260507084322 11 326 0.0 0.0 0.00 0.00 0.00 86 1021.6
20260507083824 11 326 0.0 0.0 0.00 0.00 0.00 86 1021.6
20260507083314 11 326 0.0 0.0 0.00 0.00 0.00 86 1021.6
20260507082817 11 326 0.0 0.0 0.00 0.00 0.00 86 1021.6
20260507082316 11 326 0.0 0.0 0.00 0.00 0.00 86 1021.7
20260507081826 11 313 0.0 0.0 0.00 0.00 0.00 86 1021.6
20260507081324 11 313 0.0 0.0 0.00 0.00 0.00 86 1021.6
20260507080328 11 15 0.0 0.0 0.00 0.00 0.00 85 1021.6
20260507075824 11 340 0.0 0.0 0.00 0.00 0.00 85 1021.6
20260507075325 11 327 0.0 0.0 0.00 0.00 0.00 85 1021.6
20260507074814 11 308 0.0 0.0 0.00 0.00 0.00 85 1021.6
20260507074313 11 309 0.0 3.2 0.00 0.00 0.00 85 1021.6
20260507073816 11 1 0.0 3.2 0.00 0.00 0.00 84 1021.6
20260507073322 11 314 0.0 1.6 0.00 0.00 0.00 84 1021.6
20260507072824 11 356 0.0 0.0 0.00 0.00 0.00 84 1021.6
20260507072331 11 315 0.0 6.4 0.00 0.00 0.00 83 1021.6
20260507071813 11 331 0.0 6.4 0.00 0.00 0.00 83 1021.6
20260507071313 11 326 0.0 4.8 0.00 0.00 0.00 84 1021.5
20260507070822 11 340 1.6 4.8 0.00 0.00 0.00 84 1021.5
20260507070320 11 340 0.0 0.0 0.00 0.00 0.00 84 1021.4
20260507065823 11 323 0.0 0.0 0.00 0.00 0.00 85 1021.4
20260507065329 11 323 0.0 0.0 0.00 0.00 0.00 85 1021.5
20260507064831 11 323 0.0 0.0 0.00 0.00 0.00 85 1021.5
20260507064338 11 354 0.0 6.4 0.00 0.00 0.00 85 1021.4
20260507063820 11 344 1.6 9.7 0.00 0.00 0.00 85 1021.5
20260507063320 11 355 1.6 9.7 0.00 0.00 0.00 85 1021.5
20260507062831 11 342 1.6 8.0 0.00 0.00 0.00 85 1021.5
20260507062329 11 322 3.2 11.3 0.00 0.00 0.00 86 1021.5
20260507061832 11 325 4.8 11.3 0.00 0.00 0.00 86 1021.6
20260507061338 11 351 0.0 4.8 0.00 0.00 0.00 87 1021.6
20260507060820 11 332 1.6 8.0 0.00 0.00 0.00 87 1021.6
20260507060320 11 356 0.0 8.0 0.00 0.00 0.00 87 1021.5
20260507055823 11 333 0.0 6.4 0.00 0.00 0.00 87 1021.5
20260507055322 11 354 0.0 4.8 0.00 0.00 0.00 87 1021.6
20260507054832 11 314 0.0 0.0 0.00 0.00 0.00 87 1021.5
20260507054331 11 321 0.0 4.8 0.00 0.00 0.00 87 1021.4
20260507053814 11 30 0.0 8.0 0.00 0.00 0.00 87 1021.5
20260507053313 11 355 1.6 8.0 0.00 0.00 0.00 87 1021.5
20260507052823 11 342 0.0 4.8 0.00 0.00 0.00 87 1021.5
20260507052322 12 312 1.6 4.8 0.00 0.00 0.00 87 1021.4
20260507051831 12 334 0.0 6.4 0.00 0.00 0.00 86 1021.4
20260507050821 12 330 1.6 8.0 0.00 0.00 0.00 86 1021.4
20260507050320 12 39 0.0 6.4 0.00 0.00 0.00 85 1021.5
20260507045830 12 336 1.6 6.4 0.00 0.00 0.00 85 1021.5
20260507045357 12 267 0.0 1.6 0.00 0.00 0.00 85 1021.5
20260507045000 12 298 0.0 9.7 0.00 0.00 0.00 85 1021.5
20260507044333 12 334 1.6 9.7 0.00 0.00 0.00 85 1021.5
20260507043842 12 329 1.6 12.9 0.00 0.00 0.00 85 1021.5
20260507043342 12 304 3.2 12.9 0.00 0.00 0.00 84 1021.4
20260507042852 12 329 3.2 11.3 0.00 0.00 0.00 84 1021.4
20260507042338 12 14 1.6 11.3 0.00 0.00 0.00 84 1021.3
20260507041840 12 336 4.8 11.3 0.00 0.00 0.00 84 1021.4
20260507041347 12 332 1.6 8.0 0.00 0.00 0.00 84 1021.3
20260507040836 13 338 0.0 8.0 0.00 0.00 0.00 84 1021.2
20260507040335 13 31 1.6 17.7 0.00 0.00 0.00 84 1021.2
20260507035840 13 32 1.6 17.7 0.00 0.00 0.00 83 1021.1
20260507035346 13 18 3.2 9.7 0.00 0.00 0.00 83 1021.0
20260507034856 13 313 0.0 9.7 0.00 0.00 0.00 83 1021.0
20260507034335 13 37 0.0 16.1 0.00 0.00 0.00 83 1020.9
20260507033845 13 332 1.6 16.1 0.00 0.00 0.00 83 1020.9
20260507033351 13 350 0.0 9.7 0.00 0.00 0.00 83 1020.8
20260507032813 13 321 0.0 9.7 0.00 0.00 0.00 83 1020.8
20260507032312 13 310 0.0 12.9 0.00 0.00 0.00 83 1020.7
20260507031822 13 310 0.0 12.9 0.00 0.00 0.00 83 1020.6
20260507031321 13 318 1.6 11.3 0.00 0.00 0.00 82 1020.6
20260507030830 14 349 0.0 11.3 0.00 0.00 0.00 82 1020.5
20260507030337 14 354 0.0 4.8 0.00 0.00 0.00 82 1020.4
20260507025820 14 333 0.0 8.0 0.00 0.00 0.00 81 1020.4
20260507025327 14 18 3.2 8.0 0.00 0.00 0.00 81 1020.4
20260507024836 15 337 0.0 9.7 0.00 0.00 0.00 81 1020.4
20260507024315 15 323 4.8 9.7 0.00 0.00 0.00 80 1020.3
20260507023818 15 341 0.0 3.2 0.00 0.00 0.00 80 1020.2
20260507023324 15 56 0.0 0.0 0.00 0.00 0.00 80 1020.2
20260507022827 15 131 0.0 0.0 0.00 0.00 0.00 80 1020.1
20260507022327 15 321 0.0 1.6 0.00 0.00 0.00 79 1020.2
20260507021837 15 111 0.0 1.6 0.00 0.00 0.00 79 1020.2
20260507021316 15 113 0.0 0.0 0.00 0.00 0.00 77 1020.1
20260507020825 16 347 0.0 1.6 0.00 0.00 0.00 77 1020.1
20260507020324 16 353 0.0 1.6 0.00 0.00 0.00 77 1020.1
20260507015813 16 70 0.0 3.2 0.00 0.00 0.00 76 1020.2
20260507015318 16 60 0.0 3.2 0.00 0.00 0.00 76 1020.2
20260507014820 16 336 0.0 3.2 0.00 0.00 0.00 75 1020.3
20260507014326 16 46 0.0 4.8 0.00 0.00 0.00 75 1020.3
20260507013815 16 288 0.0 4.8 0.00 0.00 0.00 75 1020.4
20260507013313 16 32 0.0 17.7 0.00 0.00 0.00 75 1020.4
20260507012843 17 341 1.6 17.7 0.00 0.00 0.00 74 1020.3
20260507012328 17 44 1.6 12.9 0.00 0.00 0.00 73 1020.3
20260507011316 17 44 0.0 9.7 0.00 0.00 0.00 74 1020.2
20260507010818 17 32 1.6 9.7 0.00 0.00 0.00 73 1020.2
20260507010325 17 50 0.0 8.0 0.00 0.00 0.00 74 1020.2
20260507005827 17 353 0.0 8.0 0.00 0.00 0.00 74 1020.2
20260507005313 17 113 0.0 8.0 0.00 0.00 0.00 74 1020.2
20260507004823 17 74 0.0 12.9 0.00 0.00 0.00 75 1020.2
20260507004350 17 6 0.0 12.9 0.00 0.00 0.00 75 1020.2
20260507003852 17 342 4.8 9.7 0.00 0.00 0.00 74 1020.1
20260507003338 17 316 1.6 9.7 0.00 0.00 0.00 74 1020.1
20260507002846 18 342 0.0 8.0 0.00 0.00 0.00 74 1020.1
20260507002344 18 127 0.0 8.0 0.00 0.00 0.00 74 1020.1
20260507001853 18 39 0.0 6.4 0.00 0.00 0.00 74 1020.0
20260507001339 18 40 0.0 4.8 0.00 0.00 0.00 73 1020.1
20260507000840 18 346 1.6 4.8 0.00 0.00 0.00 72 1020.1
20260507000352 18 1 0.0 0.0 0.00 0.00 0.00 72 1020.1
20260506235813 18 39 0.0 0.0 0.00 0.00 0.00 72 1020.1
20260506235320 18 37 0.0 0.0 0.00 0.00 0.00 73 1020.1
20260506234822 18 52 0.0 0.0 0.00 0.00 0.00 73 1020.1
20260506234321 18 337 0.0 0.0 0.00 0.00 0.00 73 1020.1
20260506233858 18 114 0.0 0.0 0.00 0.00 0.00 73 1020.1
20260506233319 18 50 0.0 0.0 0.00 0.00 0.00 72 1020.1
20260506232822 18 47 0.0 8.0 0.00 0.00 0.00 72 1020.1
20260506232321 18 144 1.6 8.0 0.00 0.00 0.00 73 1020.1
20260506231830 18 142 1.6 6.4 0.00 0.00 0.00 72 1020.1
20260506231330 18 60 0.0 11.3 0.00 0.00 0.00 71 1020.1
20260506230839 18 128 0.0 4.8 0.00 0.00 0.00 71 1020.2
20260506230317 18 140 0.0 0.0 0.00 0.00 0.00 71 1020.3
20260506225820 18 34 0.0 1.6 0.00 0.00 0.00 70 1020.4
20260506225326 18 328 0.0 1.6 0.00 0.00 0.00 69 1020.4
20260506224829 18 126 0.0 6.4 0.00 0.00 0.00 72 1020.5
20260506224328 18 193 1.6 6.4 0.00 0.00 0.00 71 1020.5
20260506223838 18 93 1.6 3.2 0.00 0.00 0.00 70 1020.5
20260506223317 18 172 0.0 0.0 0.00 0.00 0.00 71 1020.6
20260506222819 19 43 0.0 6.4 0.00 0.00 0.00 70 1020.6
20260506222333 19 207 1.6 8.0 0.00 0.00 0.00 70 1020.6
20260506221815 19 230 0.0 4.8 0.00 0.00 0.00 71 1020.6
20260506221315 19 135 0.0 0.0 0.00 0.00 0.00 70 1020.7
20260506220824 18 6 0.0 4.8 0.00 0.00 0.00 71 1020.8
20260506220330 18 356 0.0 4.8 0.00 0.00 0.00 68 1020.8
20260506215813 19 248 0.0 4.8 0.00 0.00 0.00 68 1020.7
20260506215321 19 318 0.0 4.8 0.00 0.00 0.00 69 1020.7
20260506214823 19 179 0.0 6.4 0.00 0.00 0.00 68 1020.6
20260506214322 18 269 0.0 8.0 0.00 0.00 0.00 69 1020.6
20260506213831 19 316 0.0 6.4 0.00 0.00 0.00 68 1020.6
20260506213331 19 148 0.0 6.4 0.00 0.00 0.00 69 1020.6
20260506212813 19 213 0.0 0.0 0.00 0.00 0.00 70 1020.8
20260506212319 18 210 0.0 6.4 0.00 0.00 0.00 71 1020.8
20260506211822 18 243 0.0 8.0 0.00 0.00 0.00 72 1020.9
20260506211321 18 129 1.6 8.0 0.00 0.00 0.00 71 1020.9
20260506210831 18 181 0.0 0.0 0.00 0.00 0.00 72 1021.0
20260506210328 18 131 0.0 4.8 0.00 0.00 0.00 75 1021.0
20260506205837 17 101 1.6 4.8 0.00 0.00 0.00 74 1021.1
20260506205317 17 60 0.0 0.0 0.00 0.00 0.00 76 1021.0
20260506204819 17 109 0.0 6.4 0.00 0.00 0.00 76 1021.0
20260506204325 17 240 1.6 8.0 0.00 0.00 0.00 76 1021.1
20260506203828 17 209 1.6 8.0 0.00 0.00 0.00 76 1021.0
20260506203327 17 156 1.6 8.0 0.00 0.00 0.00 77 1021.0
20260506202817 17 136 0.0 0.0 0.00 0.00 0.00 79 1021.0
20260506202316 17 145 0.0 8.0 0.00 0.00 0.00 78 1020.9
20260506201818 17 205 1.6 8.0 0.00 0.00 0.00 77 1020.9
20260506201325 16 206 0.0 4.8 0.00 0.00 0.00 78 1021.0
20260506200827 16 138 0.0 4.8 0.00 0.00 0.00 79 1021.0
20260506200334 16 46 0.0 3.2 0.00 0.00 0.00 79 1021.0
20260506195816 16 8 0.0 0.0 0.00 0.00 0.00 79 1021.1
20260506195315 16 105 0.0 3.2 0.00 0.00 0.00 80 1021.3
20260506194825 16 77 0.0 3.2 0.00 0.00 0.00 80 1021.3
20260506194324 16 180 0.0 0.0 0.00 0.00 0.00 80 1021.4
20260506193854 16 352 0.0 0.0 0.00 0.00 0.00 79 1021.4
20260506193334 16 113 0.0 0.0 0.00 0.00 0.00 81 1021.3
20260506192842 16 166 0.0 4.8 0.00 0.00 0.00 81 1021.4
20260506192348 16 152 1.6 4.8 0.00 0.00 0.00 79 1021.4
20260506191849 16 358 0.0 8.0 0.00 0.00 0.00 78 1021.3
20260506191335 16 116 1.6 8.0 0.00 0.00 0.00 79 1021.2
20260506190843 16 4 0.0 3.2 0.00 0.00 0.00 79 1021.2
20260506190341 15 344 0.0 1.6 0.00 0.00 0.00 81 1021.2
20260506185830 15 132 0.0 1.6 0.00 0.00 0.00 81 1021.3
20260506185329 16 308 0.0 4.8 0.00 0.00 0.00 80 1021.3
20260506184839 16 293 0.0 4.8 0.00 0.00 0.00 81 1021.2
20260506184318 15 302 0.0 4.8 0.00 0.00 0.00 81 1021.1
20260506183820 15 156 0.0 4.8 0.00 0.00 0.00 81 1021.2
20260506183326 15 332 0.0 4.8 0.00 0.00 0.00 81 1021.1
20260506182829 15 319 0.0 0.0 0.00 0.00 0.00 82 1021.1
20260506182328 15 314 0.0 0.0 0.00 0.00 0.00 83 1021.2
20260506181838 15 354 0.0 1.6 0.00 0.00 0.00 83 1021.2
20260506181318 15 44 0.0 3.2 0.00 0.00 0.00 84 1021.2
20260506180820 14 255 0.0 4.8 0.00 0.00 0.00 84 1021.2
20260506180326 14 289 0.0 4.8 0.00 0.00 0.00 86 1021.2
20260506175828 14 301 0.0 0.0 0.00 0.00 0.00 86 1021.2
20260506175335 14 297 0.0 3.2 0.00 0.00 0.00 86 1021.2
20260506174818 14 209 0.0 3.2 0.00 0.00 0.00 87 1021.3
20260506174316 13 176 0.0 0.0 0.00 0.00 0.00 88 1021.2
20260506173818 13 194 0.0 0.0 0.00 0.00 0.00 89 1021.2
20260506173325 13 207 0.0 4.8 0.00 0.00 0.00 90 1021.1
20260506172833 13 113 0.0 4.8 0.00 0.00 0.00 89 1021.0
20260506172312 13 143 1.6 4.8 0.00 0.00 0.00 89 1020.9
20260506171820 13 115 0.0 0.0 0.00 0.00 0.00 90 1020.9
20260506171325 13 253 0.0 1.6 0.00 0.00 0.00 90 1021.0
20260506170827 13 186 0.0 1.6 0.00 0.00 0.00 90 1020.9
20260506170312 13 306 0.0 0.0 0.00 0.00 0.00 90 1021.0
20260506165821 13 306 0.0 0.0 0.00 0.00 0.00 91 1021.0
20260506165322 13 306 0.0 0.0 0.00 0.00 0.00 90 1021.2
20260506164832 13 97 0.0 0.0 0.00 0.00 0.00 91 1021.1
20260506164315 12 97 0.0 0.0 0.00 0.00 0.00 91 1021.0
20260506163818 12 131 0.0 0.0 0.00 0.00 0.00 91 1021.0
20260506163324 12 144 0.0 0.0 0.00 0.00 0.00 91 1020.9
20260506162814 12 34 0.0 0.0 0.00 0.00 0.00 91 1021.0
20260506161838 12 96 0.0 3.2 0.00 0.00 0.00 91 1020.8
20260506161318 12 144 0.0 4.8 0.00 0.00 0.00 91 1020.8
20260506160821 12 99 0.0 3.2 0.00 0.00 0.00 91 1020.8
20260506160320 12 236 0.0 1.6 0.00 0.00 0.00 91 1020.8
20260506155828 12 123 0.0 3.2 0.00 0.00 0.00 91 1020.5
20260506155327 12 100 0.0 3.2 0.00 0.00 0.00 91 1020.5
20260506154836 12 343 0.0 1.6 0.00 0.00 0.00 91 1020.6
20260506154316 12 139 0.0 8.0 0.00 0.00 0.00 91 1020.1
20260506153819 12 100 3.2 8.0 0.00 0.00 0.00 91 1020.0
20260506153324 12 143 0.0 3.2 0.00 0.00 0.00 91 1020.3
20260506152827 12 128 0.0 3.2 0.00 0.00 0.00 91 1020.6
20260506152326 12 79 0.0 0.0 0.00 0.00 0.00 91 1020.9
20260506151816 12 79 0.0 0.0 0.00 0.00 0.00 91 1020.9
20260506151315 12 79 0.0 0.0 0.00 0.00 0.00 91 1021.0
20260506150817 12 123 0.0 0.0 0.00 0.00 0.00 91 1021.0
20260506150321 12 123 0.0 0.0 0.00 0.00 0.00 91 1021.0
20260506145823 12 153 0.0 0.0 0.00 0.00 0.00 91 1020.9
20260506145330 12 2 0.0 0.0 0.00 0.00 0.00 91 1021.0
20260506144832 12 131 0.0 0.0 0.00 0.00 0.00 91 1020.8
20260506144332 12 112 0.0 0.0 0.00 0.00 0.00 92 1020.6
20260506143821 12 334 0.0 0.0 0.00 0.00 0.00 91 1020.8
20260506143327 12 329 0.0 0.0 0.00 0.00 0.00 91 1020.7
20260506142829 12 35 0.0 0.0 0.00 0.00 0.00 91 1020.5
20260506142337 12 61 0.0 0.0 0.00 0.00 0.00 91 1020.3
20260506141819 12 107 0.0 8.0 0.00 0.00 0.00 92 1020.2
20260506141318 12 90 1.6 8.0 0.00 0.00 0.00 91 1019.9
20260506140828 12 86 0.0 6.4 0.00 0.00 0.00 92 1019.9
20260506140327 12 154 0.0 6.4 0.00 0.00 0.00 92 1020.0
20260506135830 12 136 0.0 0.0 0.00 0.00 0.00 92 1019.9
20260506135316 12 131 0.0 0.0 0.00 0.00 0.00 92 1020.0
20260506134819 12 129 0.0 0.0 0.00 0.00 0.00 92 1019.9
20260506134318 12 129 0.0 0.0 0.00 0.00 0.00 92 1019.8
20260506133828 12 129 0.0 0.0 0.00 0.00 0.00 92 1019.8
20260506133326 12 129 0.0 0.0 0.00 0.00 0.00 92 1019.8
20260506132836 12 136 0.0 1.6 0.00 0.00 0.00 92 1019.8
20260506132315 12 120 0.0 1.6 0.00 0.00 0.00 92 1019.8
20260506131817 12 115 0.0 0.0 0.00 0.00 0.00 92 1019.7
20260506131324 12 139 0.0 1.6 0.00 0.00 0.00 92 1019.6
20260506130824 12 93 0.0 1.6 0.00 0.00 0.00 91 1019.5
20260506130324 12 142 0.0 0.0 0.00 0.00 0.00 91 1019.4
20260506125833 12 126 0.0 0.0 0.00 0.00 0.00 91 1019.6
20260506125313 12 125 0.0 0.0 0.00 0.00 0.00 91 1019.5
20260506124815 12 153 0.0 1.6 0.00 0.00 0.00 91 1019.5
20260506124322 12 102 0.0 1.6 0.00 0.00 0.00 91 1019.4
20260506123825 12 94 0.0 0.0 0.00 0.00 0.00 91 1019.3
20260506123333 12 127 0.0 0.0 0.00 0.00 0.00 91 1019.3
20260506122813 12 139 0.0 0.0 0.00 0.00 0.00 91 1019.4
20260506122319 12 131 0.0 1.6 0.00 0.00 0.00 91 1019.4
20260506121822 12 120 0.0 1.6 0.00 0.00 0.00 91 1019.5
20260506120818 12 110 0.0 0.0 0.00 0.00 0.00 91 1019.4
20260506120318 12 134 0.0 0.0 0.00 0.00 0.00 90 1019.3
20260506115828 12 138 0.0 0.0 0.00 0.00 0.00 90 1019.4
20260506115327 12 138 0.0 0.0 0.00 0.00 0.00 90 1019.3
20260506114837 12 136 0.0 0.0 0.00 0.00 0.00 90 1019.3
20260506114314 12 136 0.0 0.0 0.00 0.00 0.00 90 1019.1
20260506113817 12 136 0.0 0.0 0.00 0.00 0.00 90 1019.1
20260506113316 12 136 0.0 0.0 0.00 0.00 0.00 90 1019.0
20260506112826 12 136 0.0 0.0 0.00 0.00 0.00 90 1019.0
20260506112325 12 115 0.0 0.0 0.00 0.00 0.00 90 1019.0
20260506111835 12 113 0.0 0.0 0.00 0.00 0.00 90 1019.1
20260506111318 12 113 0.0 0.0 0.00 0.00 0.00 90 1019.0
20260506110819 12 113 0.0 0.0 0.00 0.00 0.00 90 1018.9